User: anonymous   Login
Location: Northam
(31.6525°S, 116.6655°E)
Time: 15:03:39
(UTC+08:00)
Language:

NOAA 15 - Orbit

View from above orbital plane
View from above orbital plane
View from above satellite
View from above satellite

Ground track
Ground track

The orbit data is extracted from the following two-line orbital elements,

1 25338U 98030A   21209.83334046  .00000073  00000-0  48808-4 0  9998
2 25338  98.6796 237.9829 0010922 154.7964 205.3751 14.26048466206897
Epoch (UTC): 28 July 2021 20:00:00
Eccentricity: 0.0010922
inclination: 98.6796°
perigee height: 797 km
apogee height: 813 km
right ascension of ascending node: 237.9829°
argument of perigee: 154.7964°
revolutions per day: 14.26048466
mean anomaly at epoch: 205.3751°
orbit number at epoch: 20689

The dashed part of the orbit path shows where the satellite is in the earth's shadow,  

DLR